Hourly Data Report for September 07, 2017

All times are specified in Local Standard Time (LST). Add 1 hour to adjust for Daylight Saving Time where and when it is observed.

FREDERICTON
NEW BRUNSWICK

45°52'08.000" N
66°32'14.000" W
20.70 m
8101505
71700
YFC

Download Data

Hourly Data (September 2017)
Hourly Data Report for September 7, 2017
Temp Definition
°C
Dew Point Temp Definition
°C
Rel Hum Definition
%
Wind Dir Definition
10's deg

Wind Spd Definition
km/h
Visibility Definition
km
Stn Press Definition
kPa
Hmdx Definition


Wind Chill Definition


Weather Definition


TIME
00:00 Legend Double Dagger 18.8 18.0 95 17 13 16.1 101.12     LegendNANA
01:00 Legend Double Dagger 18.8 18.2 96 16 8 16.1 101.07     LegendNANA
02:00 Legend Double Dagger 18.9 18.3 96 15 9 16.1 101.02     Rain
03:00 Legend Double Dagger 19.4 18.6 95 16 15 16.1 100.97     Rain
04:00 Legend Double Dagger 19.0 18.2 95 16 11 16.1 100.85     Rain
05:00 Legend Double Dagger 18.8 18.2 96 15 11 16.1 100.74     LegendNANA
06:00 Legend Double Dagger 18.8 18.3 97 15 17 3.2 100.75     Heavy Rain,Fog
07:00 Legend Double Dagger 18.8 18.3 97 16 13 16.1 100.62     Rain
08:00 Legend Double Dagger 19.0 18.2 95 15 8 16.1 100.51     LegendNANA
09:00 Legend Double Dagger 19.5 18.7 95 17 15 16.1 100.44     Rain
10:00 Legend Double Dagger 20.0 19.0 94 17 22 16.1 100.38 27   Rain
11:00 Legend Double Dagger 20.7 19.6 93 17 22 16.1 100.28 28   LegendNANA
12:00 Legend Double Dagger 21.2 19.5 90 18 30 16.1 100.23 28   LegendNANA
13:00 Legend Double Dagger 21.2 19.0 87 19 28 16.1 100.19 28   LegendNANA
14:00 Legend Double Dagger 20.4 18.3 88 19 28 16.1 100.22 27   LegendNANA
15:00 Legend Double Dagger 20.3 17.9 86 20 26 16.1 100.25 26   LegendNANA
16:00 Legend Double Dagger 20.7 17.9 84 18 18 16.1 100.25 27   LegendNANA
17:00 Legend Double Dagger 20.2 18.5 90 19 17 16.1 100.31 27   LegendNANA
18:00 Legend Double Dagger 20.0 15.8 77 21 22 16.1 100.38     LegendNANA
19:00 Legend Double Dagger 18.2 15.5 84 18 17 16.1 100.43     LegendNANA
20:00 Legend Double Dagger 17.3 16.3 94 19 18 16.1 100.50     LegendNANA
21:00 Legend Double Dagger 16.2 15.4 95 18 17 16.1 100.57     LegendNANA
22:00 Legend Double Dagger 15.4 14.8 96 20 15 16.1 100.60     LegendNANA
23:00 Legend Double Dagger 15.0 14.4 96 21 13 16.1 100.65     LegendNANA

Notes on Data Quality.

Legend

  • E = Estimated
  • M = Missing
  • NA = Not Available
  • ‡ = Partner data that is not subject to review by the National Climate Archives
Date modified: